Flight Track Log - Related Links

Times and Time Zones

All times are in EDT time to prevent confusion due to time zone crossing. See the DAL3676 flight status page for this flight to view local times or setup timezone preferences in your user account.

Time Position Orientation Groundspeed Altitude Reporting Facility
EDT Latitude Longitude Course Direction KTS MPH feet Rate Location/Type
Sat 07:00:30 PM 44.8667 -93.1333 71° East 192 221 2,600  Level Minneapolis TRACON
Sat 07:01:24 PM 44.8833 -93.0667 71° East 238 274 4,900 2,158 Climbing Minneapolis TRACON
Sat 07:02:24 PM 44.9333 -93.0167 35° Northeast 256 295 6,700 2,054 Climbing Minneapolis TRACON
Sat 07:03:53 PM 45.0394 -92.9689 18° North 288 331 10,000 2,280 Climbing Minneapolis Center
Sat 07:04:54 PM 45.1192 -92.9572 North 289 333 12,400 2,244 Climbing Minneapolis Center
Sat 07:05:56 PM 45.2011 -92.9464 North 297 342 14,600 1,951 Climbing Minneapolis Center
Sat 07:06:57 PM 45.2844 -92.9300 North 303 349 16,400 1,820 Climbing Minneapolis Center
Sat 07:07:58 PM 45.3714 -92.9039 12° North 318 366 18,300 1,659 Climbing Minneapolis Center
Sat 07:09:00 PM 45.4775 -92.8747 11° North 322 371 19,800 1,463 Climbing Minneapolis Center
Sat 07:10:01 PM 45.5717 -92.8494 11° North 337 388 21,300 1,475 Climbing Minneapolis Center
Sat 07:11:02 PM 45.6661 -92.8214 12° North 345 397 22,800 1,328 Climbing Minneapolis Center
Sat 07:12:03 PM 45.7594 -92.7919 12° North 345 397 24,000 585 Climbing Minneapolis Center
Sat 07:13:05 PM 45.8583 -92.7739 North 359 413 24,000  Level Minneapolis Center
Sat 07:14:06 PM 45.9647 -92.8014 350° North 383 441 24,000  Level Minneapolis Center
Sat 07:15:07 PM 46.0692 -92.8467 343° North 391 450 24,000  Level Minneapolis Center
Sat 07:16:08 PM 46.1858 -92.8303 North 423 487 24,000  Level Minneapolis Center
Sat 07:17:09 PM 46.3161 -92.7700 18° North 445 512 24,000  Level Minneapolis Center
Sat 07:18:12 PM 46.4317 -92.7003 23° Northeast 450 518 24,000  Level Minneapolis Center
Sat 07:19:13 PM 46.5453 -92.6139 28° Northeast 457 526 24,000  Level Minneapolis Center
Sat 07:20:14 PM 46.6508 -92.5083 34° Northeast 461 531 24,000  Level Minneapolis Center
Sat 07:21:15 PM 46.7497 -92.3956 38° Northeast 458 527 24,000 -49 Level Minneapolis Center
Sat 07:22:17 PM 46.8597 -92.3339 21° North 439 505 23,900  Descending Minneapolis Center
Sat 07:23:18 PM 46.9933 -92.3361 359° North 409 471 24,000 49 Climbing Minneapolis Center
Sat 07:24:19 PM 47.0986 -92.3744 346° North 395 455 24,000  Level Minneapolis Center
Sat 07:25:20 PM 47.2000 -92.4239 342° North 389 448 24,000  Level Minneapolis Center
Sat 07:26:22 PM 47.2919 -92.5067 329° Northwest 390 449 24,000  Level Minneapolis Center
Sat 07:27:23 PM 47.3667 -92.6217 314° West 390 449 24,000  Level Minneapolis Center
Sat 07:28:24 PM 47.4431 -92.7372 314° West 395 455 24,000  Level Minneapolis Center
Sat 07:29:25 PM 47.4953 -92.8794 299° West 397 457 24,000  Level Minneapolis Center
Sat 07:30:27 PM 47.5594 -93.0394 301° West 388 447 24,000  Level Minneapolis Center
Sat 07:31:28 PM 47.5956 -93.1725 292° West 360 414 24,000 -49 Level Minneapolis Center
Sat 07:32:29 PM 47.6142 -93.3117 281° West 350 403 23,900  Descending Minneapolis Center
Sat 07:33:30 PM 47.6358 -93.4494 283° West 348 400 24,000 49 Climbing Minneapolis Center
Sat 07:34:31 PM 47.6503 -93.5900 279° West 348 400 24,000 -49 Level Minneapolis Center
Sat 07:35:32 PM 47.6631 -93.7311 278° West 348 400 23,900 -585 Descending Minneapolis Center
Sat 07:36:34 PM 47.6772 -93.8767 278° West 352 405 22,800 -1,024 Descending Minneapolis Center
Sat 07:37:35 PM 47.6903 -94.0236 278° West 358 412 21,800 -1,033 Descending Minneapolis Center
Sat 07:38:36 PM 47.7069 -94.2019 278° West 363 418 20,700 -885 Descending Minneapolis Center
Sat 07:39:37 PM 47.7194 -94.3506 277° West 364 419 20,000 -344 Descending Minneapolis Center
Sat 07:40:38 PM 47.7328 -94.4889 278° West 348 400 20,000  Level Minneapolis Center
Sat 07:41:39 PM 47.7458 -94.6242 278° West 335 386 20,000  Level Minneapolis Center
Sat 07:42:40 PM 47.7581 -94.7647 277° West 341 392 20,000  Level Minneapolis Center
Sat 07:43:42 PM 47.7678 -94.8778 277° West 344 396 20,000  Level Minneapolis Center
Sat 07:44:43 PM 47.7842 -95.0456 278° West 343 395 20,000  Level Minneapolis Center
Sat 07:45:44 PM 47.7944 -95.1878 276° West 347 399 20,000  Level Minneapolis Center
Sat 07:46:45 PM 47.8058 -95.3303 277° West 348 400 20,000  Level Minneapolis Center
Sat 07:47:46 PM 47.8178 -95.4733 277° West 349 402 20,000  Level Minneapolis Center
Sat 07:48:48 PM 47.8319 -95.6219 278° West 345 397 20,000 -439 Level Minneapolis Center
Sat 07:49:49 PM 47.8422 -95.7633 276° West 345 397 19,100 -1,574 Descending Minneapolis Center
Sat 07:50:50 PM 47.8531 -95.8939 277° West 327 376 16,800 -2,115 Descending Minneapolis Center
Sat 07:51:51 PM 47.8644 -96.0472 276° West 313 360 14,800 -1,770 Descending Minneapolis Center
Sat 07:52:52 PM 47.8744 -96.1767 277° West 315 362 13,200 -1,574 Descending Minneapolis Center
Sat 07:53:53 PM 47.8778 -96.3047 272° West 312 359 11,600 -1,525 Descending Minneapolis Center
Sat 07:54:54 PM 47.8728 -96.4139 266° West 277 319 10,100 -1,429 Descending Minneapolis Center
Sat 07:55:59 PM 47.8706 -96.5250 268° West 247 284 8,600 -1,400 Descending Minneapolis Center
Sat 07:56:54 PM 47.8672 -96.6161 267° West 245 282 7,300 -1,461 Descending Minneapolis Center
Sat 07:57:54 PM 47.8625 -96.7197 266° West 245 282 5,800 -1,488 Descending Minneapolis Center
Sat 07:58:55 PM 47.8594 -96.8167 267° West 245 282 4,300 -1,377 Descending Minneapolis Center
Sat 07:59:56 PM 47.8547 -96.9203 266° West 236 272 3,000 -793 Descending Minneapolis Center
Sat 08:00:56 PM 47.8533 -97.0139 269° West 225 259 2,700 -99 Descending Minneapolis Center
Sat 08:01:57 PM 47.8461 -97.0864 262° West 176 203 2,800 50 Climbing Minneapolis Center
Sat 08:02:57 PM 47.8450 -97.1583 269° West 165 190 2,800 -298 Level Minneapolis Center
Sat 08:03:58 PM 47.8700 -97.1822 327° Northwest 122 140 2,200 -590 Descending Minneapolis Center
Sat 08:04:59 PM 47.9033 -97.1800 North 112 129 1,600 -471 Descending Minneapolis Center
Sat 08:06:18 PM 47.9417 -97.1844 356° North 117 135 1,100 -380 Descending Minneapolis Center

Login

Don't have an account? Register now (free) for customized features, flight alerts, and more!